COSMOS 2251 DEB, 34818

Orbit data source: Space-Track

COSMOS 2251 DEB, 34818 is space debris in LEO originally from a launch on Wed, 16 Jun 1993 UTC launched from the Plesetsk Missile And Space Complex (PKMTR). The debris from Iridium 33, an American commercial communications satellite, has been tracked extensively since its accidental collision with the defunct Russian satellite Cosmos 2251 in 2009. This event, occurring at high speed in low Earth orbit (LEO), generated thousands of pieces of space debris, significantly increasing the risk of further collisions. The Iridium 33 debris cloud has impacted space traffic management and orbital debris mitigation strategies, making it a subject of ongoing study in space situational awareness.

Loading next visibility...
Identifier
34818, 1993-036ABH
Orbit
LEO
Country
Flag of CISCIS
Related business
Manufacturer
Unknown
Mission
Spacecraft
Bus & Motor
Unknown
Mass
Unknown
Launch date (UTC)
1993-06-16 (33 years ago)
Launch vehicle
Unknown
Launch site
Plesetsk Missile And Space Complex (PKMTR)
Object type
Payload
Rocket body
Debris
Shape & HBR
Unknown shape, 0.1 m
Radar Cross Section
Medium (>0.1 m² and <1 m²)

Expand to show TLE details & history
Last TLE update: 1 day ago

TLE from 1 day ago
0 COSMOS 2251 DEB
1 34818U 93036ABH 26173.65372669  .00000330  00000-0  11947-3 0  9999
2 34818  74.0364 303.9873 0025108 335.4541  38.4358 14.37214856901275
Epoch: 2026-06-22T15:41Z
TLE epoch observation values (Epoch: 2026-06-22T15:41:21.986Z)
Latitude
13.48841°
Longitude
161.72254°
Altitude
755.544 km
Speed
7.485 km/s
True Right ascension
20h 31m 36s
True Declination
13° 24' 38"
Sunlit
Object was in full shadow at epoch
Visualization orbit readout
Latitude
Unknown
Longitude
Unknown
Altitude
Unknown
Speed
Unknown
Apparent Right ascension
Unknown
Apparent Declination
Unknown
Sunlit
N/A
Visualization observer readout
Local Sidereal Time
14:48:18
Azimuth
Unknown
Elevation
Unknown
Doppler factor
Unknown
Orbital elements
Apogee altitude
783.274 km
Perigee altitude
747.402 km
Semi-major axis
7,143.475 km
Eccentricity
0.00251
Inclination
74.0364°
RAAN
303.9873°
Arg. of periapsis
335.4541°
True anomaly
38.6151°
Mean anomaly
38.4358°
Eccentric anomaly
38.5254°
Mean motion
3.59483 °/min
Orbital period
100.14 mins
BSTAR
0.00011947

Documentation

Showing up to 5 results
|